Wind from 170 at 14 knots

Air temperature 11.0° C
Dewpoint -0.0° C

Last reported at 2014-Apr-16 14:20 UTC.
Time now 2014-Apr-16 16:01 UTC

Location: N 56°44' E 016°18'.
View on Google Maps.

See reports from other nearby stations

Tides Stations Pressure Air Temp Water Temp Dewpoint Dewpoint depression Visibility Wind Speed Wind Dir Waves Ship positions

  
sailing weather and tide predictions

KALMAR weather

date/time (UTC)wind fromknots sea level pressurealtimeterstation pressurevisibilityair tempwater tempwave heightnotes
2014-Apr-16 14:20 170 14 11.0
2014-Apr-16 13:50 170 11 12.0
2014-Apr-16 13:20 160 9 12.0
2014-Apr-16 12:50 160 9 12.0
2014-Apr-16 12:20 150 9 12.0
2014-Apr-16 11:50 130 8 12.0
2014-Apr-16 11:20 160 7 11.0
2014-Apr-16 10:50 080 5 11.0
2014-Apr-16 10:20 030 5 11.0
2014-Apr-16 09:50 290 5 11.0
2014-Apr-16 09:20 320 4 10.0
2014-Apr-16 08:50 340 5 9.0
2014-Apr-16 08:20 320 4 8.0
2014-Apr-16 07:50 340 4 7.0
2014-Apr-16 07:20 340 4 6.0
2014-Apr-16 06:50 330 4 5.0
2014-Apr-16 06:20 320 4 3.0
2014-Apr-16 05:50 1.0
2014-Apr-16 05:20 -0.0
2014-Apr-16 04:50 -2.0
2014-Apr-16 04:20 -3.0
2014-Apr-16 03:50 280 2 -3.0
2014-Apr-16 03:20 270 2 5.4-3.0
2014-Apr-16 02:50 290 2 5.4-3.0
2014-Apr-16 02:20 5.4-3.0
2014-Apr-16 01:50 5.4-3.0
2014-Apr-16 01:20 5.4-3.0
2014-Apr-16 00:50 5.4-3.0
2014-Apr-16 00:20 5.4-3.0
2014-Apr-15 23:50 5.4-3.0
2014-Apr-15 23:20 5.4-2.0
2014-Apr-15 22:50 5.4-2.0
2014-Apr-15 22:20 260 2 5.4-2.0
2014-Apr-15 21:50 5.4-1.0
2014-Apr-15 21:20 330 3 5.4-0.0
2014-Apr-15 20:50 290 4 5.4-0.0
2014-Apr-15 20:20 290 4 5.4 1.0
2014-Apr-15 19:50 310 4 2.0
2014-Apr-15 19:20 310 3 3.0
2014-Apr-15 18:50 310 3 4.0
2014-Apr-15 18:20 330 4 5.0
2014-Apr-15 17:50 360 4 6.0
2014-Apr-15 17:20 020 7 8.0
2014-Apr-15 16:50 030 9 8.0
2014-Apr-15 16:20 020 8 8.0
2014-Apr-15 15:50 030 11 8.0
2014-Apr-15 15:20 030 12 8.0
2014-Apr-15 14:50 030 10 9.0
2014-Apr-15 14:20 020 13 5.4 8.0
2014-Apr-15 13:50 030 16 5.4 8.0
2014-Apr-15 13:20 030 13 5.4 9.0
2014-Apr-15 12:50 030 11 5.4 8.0
2014-Apr-15 12:20 020 11 5.4 8.0
2014-Apr-15 11:50 350 10 5.4 7.0
2014-Apr-15 11:20 030 15 4.9 6.0 Rain.
2014-Apr-15 10:50 010 12 5.4 8.0 Light rain.
2014-Apr-15 10:20 020 13 5.4 7.0
2014-Apr-15 09:50 030 13 5.4 8.0
2014-Apr-15 09:20 010 13 5.4 7.0
2014-Apr-15 08:50 020 15 5.4 7.0 Light drizzle.
2014-Apr-15 08:20 010 11 5.4 8.0
2014-Apr-15 07:50 360 11 8.0
2014-Apr-15 07:20 350 12 8.0
2014-Apr-15 06:50 340 11 7.0
2014-Apr-15 06:20 340 10 5.4 7.0
2014-Apr-15 05:50 330 10 5.4 6.0 Light drizzle.
2014-Apr-15 05:20 330 9 6.0
2014-Apr-15 04:50 320 7 5.0
2014-Apr-15 04:20 330 7 5.0
2014-Apr-15 03:50 320 7 4.0
2014-Apr-15 03:20 320 8 5.4 4.0
2014-Apr-15 02:50 320 9 5.4 4.0
2014-Apr-15 02:20 320 8 5.4 4.0
2014-Apr-15 01:50 320 8 5.4 3.0
2014-Apr-15 01:20 320 7 5.4 3.0
2014-Apr-15 00:50 320 4 5.4 3.0
2014-Apr-15 00:20 310 4 5.4 4.0
2014-Apr-14 23:50 320 4 5.4 5.0
2014-Apr-14 23:20 300 6 5.4 6.0
2014-Apr-14 22:50 310 5 5.4 5.0
2014-Apr-14 22:20 310 6 5.4 5.0
2014-Apr-14 21:50 310 5 5.4 5.0
2014-Apr-14 21:20 300 5 5.4 5.0
2014-Apr-14 20:50 300 5 5.4 4.0
2014-Apr-14 20:20 310 7 5.4 5.0
2014-Apr-14 19:50 320 8 6.0
2014-Apr-14 19:20 290 7 6.0
2014-Apr-14 18:50 280 6 7.0
2014-Apr-14 18:20 250 4 8.0
2014-Apr-14 17:50 230 5 8.0
2014-Apr-14 17:20 8.0
2014-Apr-14 16:50 200 3 9.0
2014-Apr-14 16:20 210 5 9.0